This demonstration page uses our WeatherBlox Daily Observations layout. Learn more.

39.92423, -83.80882

Hourly Observations for May 12, 2017

Temp ( °F °C ) Dew Point ( °F °C ) Humidity (%) Winds ( mph kmh ) Pressure ( in mb ) Visibility ( mi km ) Precip ( " mm )
12:56 am 00:56 Mostly Cloudy 52 11.1 42 5.6 69 69 NE 9 15 29.91 1013 10 16.0934 0 0
1:34 am 01:34 Cloudy 52 11 43 6 72 72 NE 8 13 29.91 1013 10 16.0934 0 0
1:56 am 01:56 Cloudy 53 11.7 43 6.1 69 69 NE 6 9 29.92 1013 10 16.0934 0 0
2:56 am 02:56 Mostly Cloudy 51 10.6 43 6.1 74 74 NE 8 13 29.89 1012 10 16.0934 0 0
3:56 am 03:56 Cloudy 50 10 43 6.1 77 77 NE 7 11 29.89 1012 10 16.0934 0 0
4:07 am 04:07 Cloudy 50 10 43 6 76 76 NE 9 15 29.88 1012 10 16.0934 0 0
4:56 am 04:56 Mostly Clear 47 8.3 43 6.1 86 86 NE 8 13 29.88 1012 10 16.0934 0 0
5:56 am 05:56 Cloudy 49 9.4 44 6.7 83 83 NE 7 11 29.89 1012 10 16.0934 0 0
6:56 am 06:56 Cloudy 50 10 45 7.2 83 83 NE 6 9 29.9 1013 10 16.0934 0 0
7:44 am 07:44 Cloudy 52 11 46 8 82 82 NE 9 15 29.91 1013 10 16.0934 0 0
7:56 am 07:56 Cloudy 51 10.6 46 7.8 83 83 NE 9 15 29.9 1013 10 16.0934 0 0
8:56 am 08:56 Cloudy 52 11.1 47 8.3 83 83 NE 8 13 29.9 1013 10 16.0934 0 0
9:11 am 09:11 Cloudy 54 12 46 8 77 77 NE 9 15 29.88 1012 10 16.0934 0 0
9:56 am 09:56 Cloudy 54 12.2 48 8.9 80 80 NE 7 11 29.91 1013 10 16.0934 0 0
10:56 am 10:56 Cloudy 55 12.8 50 10 83 83 NE 9 15 29.9 1012 10 16.0934 0 0
11:53 am 11:53 Cloudy 57 14 50 10 77 77 NNE 10 17 29.91 1013 10 16.0934 0 0
11:56 am 11:56 Cloudy 58 14.4 50 10 75 75 NE 13 20 29.9 1013 10 16.0934 0 0
12:56 pm 12:56 Cloudy 61 16.1 52 11.1 72 72 NE 12 19 29.89 1012 10 16.0934 0 0
1:56 pm 13:56 Cloudy 62 16.7 52 11.1 70 70 NE 14 22 29.88 1012 10 16.0934 0 0
2:56 pm 14:56 Cloudy 62 16.7 51 10.6 67 67 NNE 7 11 29.88 1012 10 16.0934 0 0
3:23 pm 15:23 Mostly Cloudy 63 17 52 11 68 68 NNE 10 17 29.85 1011 10 16.0934 0 0
3:56 pm 15:56 Mostly Cloudy 63 17.2 50 10 63 63 NNE 12 19 29.87 1012 10 16.0934 0 0
4:56 pm 16:56 Mostly Cloudy 65 18.3 50 10 59 59 NE 13 20 29.86 1011 10 16.0934 0 0
5:56 pm 17:56 Partly Cloudy 64 17.8 49 9.4 58 58 NE 16 26 29.85 1011 10 16.0934 0 0
6:56 pm 18:56 Sunny 61 16.1 48 8.9 63 63 NNE 12 19 29.88 1012 10 16.0934 0 0
7:56 pm 19:56 Sunny 60 15.6 46 7.8 60 60 N 16 26 29.88 1012 10 16.0934 0 0
8:56 pm 20:56 Clear 57 13.9 44 6.7 62 62 NNE 10 17 29.89 1012 10 16.0934 0 0
9:56 pm 21:56 Clear 54 12.2 45 7.2 72 72 NNE 9 15 29.91 1013 10 16.0934 0 0
10:56 pm 22:56 Clear 54 12.2 45 7.2 72 72 N 9 15 29.91 1013 10 16.0934 0 0
11:56 pm 23:56 Clear 50 10 44 6.7 80 80 NE 5 7 29.9 1013 10 16.0934 0 0

Powered by AerisWeather